Cloud_Cover
0 0 0 0 0 0 0 2 0 0 0 0 0 0 0 0 0 0 2 5 5 5 0 0 0 0 0 0 6 34 0 0 0 0 2 16 13 5 5 5 5 5 81 30 100 97 100 91 40
0 0 0 0 0 0 48 32 0 0 0 0 0 1 1 0 5 3 0 0 0 8 8 11 0 0 0 4 5 4 3 1 0 3 5 100 96 74 5 5 5 5 69 96 100 100 100 100 100
0 0 0 0 0 0 25 1 0 0 0 0 0 31 0 19 1 0 0 0 0 0 2 34 0 0 0 0 0 0 0 3 33 5 17 100 100 100 52 5 1 5 92 70 100 100 100 80 62
0 2 0 0 0 0 2 0 0 0 0 0 0 0 0 0 0 0 0 0 0 0 26 25 0 0 0 0 8 21 55 55 76 96 96 100 100 100 100 100 5 5 94 61 100 100 100 100 99
0 0 0 0 0 0 0 0 0 0 0 0 0 0 20 0 0 0 0 0 0 0 16 16 0 0 3 9 100 100 100 100 100 100 100 100 100 100 100 100 52 40 92 100 100 100 100 92 69
0 0 0 0 0 95 9 0 0 0 0 0 0 0 1 0 0 0 0 0 0 0 7 33 10 5 5 22 100 100 100 100 100 100 100 100 100 100 100 100 99 98 100 100 100 100 77 74 100
0 0 0 0 0 1 4 0 0 0 0 0 0 0 0 0 0 0 0 0 0 0 39 98 29 5 84 97 98 100 100 100 100 100 100 100 100 100 100 100 100 100 100 100 100 100 100 100 51
0 0 0 0 0 4 4 0 0 0 0 0 0 0 0 0 0 0 0 0 0 63 99 100 82 45 92 67 100 100 100 100 100 100 100 100 100 100 100 100 100 100 100 100 100 100 100 100 75
0 0 0 3 0 63 26 0 4 4 0 0 0 0 0 0 0 0 0 0 0 70 100 74 100 8 96 100 100 75 100 100 100 100 100 100 100 100 100 100 100 100 100 100 100 99 100 100 100
1 2 3 0 2 4 2 2 4 8 9 0 0 5 0 0 0 0 0 0 0 3 100 100 47 78 97 100 100 100 100 100 100 100 100 100 100 100 100 100 99 100 100 99 94 100 100 100 100
0 4 5 5 1 0 5 2 0 5 6 5 0 0 6 1 0 0 0 0 0 0 99 94 93 34 100 100 100 100 100 100 100 100 100 100 100 100 100 100 98 95 100 96 90 99 100 100 100
1 5 0 0 0 1 0 2 5 9 92 5 0 0 0 0 1 0 0 0 0 0 46 100 52 90 49 100 99 99 100 100 100 100 100 100 100 100 100 100 100 100 88 100 98 100 100 100 100
6 5 5 0 0 0 5 2 5 94 67 5 4 0 0 22 56 2 0 0 0 0 44 37 90 53 50 5 87 100 100 100 100 100 100 100 100 100 100 100 100 100 100 100 91 100 100 100 100
1 0 5 4 0 0 0 5 4 94 69 5 5 0 12 100 74 0 0 0 0 0 0 7 51 97 64 59 65 69 100 100 100 100 100 100 100 100 100 100 100 100 100 100 100 100 100 100 100
5 0 26 5 36 2 0 43 82 65 39 5 5 4 100 80 1 0 0 0 0 0 2 8 0 100 100 58 100 96 92 92 99 100 100 100 100 100 100 100 100 100 100 100 100 100 100 100 100
1 5 0 99 60 35 9 85 44 87 31 5 5 5 8 0 0 0 0 0 0 0 31 0 0 99 100 100 53 95 100 100 96 100 100 100 100 100 100 100 100 100 100 84 100 100 100 100 100
46 20 100 100 44 11 5 100 11 18 85 6 5 5 5 0 0 0 0 0 0 0 0 0 0 99 82 100 99 100 100 100 100 100 100 100 100 100 100 100 100 100 100 100 100 100 100 100 100
75 100 100 100 100 56 64 100 46 42 100 6 5 5 5 4 2 0 0 0 0 0 0 0 0 60 95 88 100 100 100 100 100 100 100 100 100 100 100 100 100 100 100 100 100 100 100 100 100
100 87 95 100 100 100 59 100 16 95 100 43 5 24 12 5 5 2 0 0 0 0 0 0 1 68 42 100 100 100 100 100 100 100 100 100 100 100 100 100 100 100 100 100 100 100 100 100 100
100 100 100 100 100 100 100 100 100 100 100 99 8 84 30 5 3 4 0 0 0 0 0 0 7 82 100 95 98 99 100 100 100 100 100 100 100 100 100 100 100 100 100 100 95 100 100 100 100
100 100 100 100 100 98 100 100 100 100 100 44 38 21 25 5 2 0 0 0 0 0 0 0 89 56 68 100 99 100 100 100 100 100 100 100 100 100 100 100 100 100 100 100 100 100 100 100 100
100 100 100 100 100 88 100 100 100 100 100 14 6 5 5 0 0 0 0 0 0 0 0 0 100 82 81 100 100 100 100 100 100 100 100 100 100 100 100 100 100 100 100 100 100 100 100 100 100
100 100 100 100 100 90 74 100 100 100 100 100 100 8 5 5 5 5 2 97 1 0 0 0 100 86 100 100 91 100 100 100 100 100 100 100 100 100 100 100 100 100 100 100 100 100 100 100 100
100 100 100 100 100 78 100 100 100 100 100 100 100 35 12 5 5 5 4 29 0 0 0 0 100 100 100 80 100 85 100 100 100 100 100 100 100 100 100 100 100 100 100 100 100 100 100 100 100
100 100 100 100 97 76 100 100 100 100 100 100 98 100 18 45 40 5 5 0 0 1 91 1 100 100 100 100 100 98 94 100 88 100 100 100 100 100 100 100 100 100 100 100 100 100 100 100 100
100 100 100 100 100 91 100 100 100 100 100 100 100 100 100 100 98 7 5 5 0 0 100 8 30 100 100 100 100 100 97 100 44 87 100 100 100 100 100 100 100 100 100 100 100 100 100 100 100
100 100 100 100 100 100 100 100 100 100 100 100 100 100 100 100 100 93 60 38 5 0 0 0 0 41 100 100 100 100 100 44 99 100 70 100 100 100 100 100 100 100 100 100 100 100 100 100 100
100 100 100 100 100 100 100 100 98 100 100 100 100 100 100 100 82 75 5 49 4 0 0 0 0 0 10 100 100 100 100 100 100 100 86 90 100 100 100 100 100 100 100 100 100 100 100 100 100
100 100 100 100 100 100 100 100 100 100 100 100 100 100 100 100 100 5 14 14 28 59 0 1 0 0 0 1 91 100 98 100 100 100 98 42 6 34 98 100 100 100 100 100 100 100 100 100 100
100 100 100 100 100 100 100 100 100 100 100 100 100 100 100 100 100 6 46 48 72 100 1 0 5 0 0 0 0 36 100 100 100 100 100 82 8 3 21 80 88 77 100 100 100 100 100 100 100